Tacoma, WA

8:35 AM PST on January 20, 2017 (GMT -0800)
McChord Air Force Base

Weather History for KTCM - June, 2014

Change the Weather History Date:

Monday, June 23, 2014

  Actual Average Record
Temperature  
Mean Temperature 62 °F -  
Max Temperature 77 °F 69 °F 91 °F (1992)
Min Temperature 47 °F 48 °F 40 °F (2008)
Degree Days  
Heating Degree Days 3    
Growing Degree Days 12 (Base 50)    
Moisture  
Dew Point 51 °F    
Average Humidity 68    
Maximum Humidity 97    
Minimum Humidity 41    
Precipitation  
Precipitation 0.01 in - - ()
Sea Level Pressure  
Sea Level Pressure 30.05 in    
Wind  
Wind Speed 4 mph (WSW)    
Max Wind Speed 13 mph    
Max Gust Speed -    
Visibility 10 miles    
Events Rain    
Averages and records for this station are not official NWS values.
T = Trace of Precipitation, MM = Missing Value Source: NWS Daily Summary

Daily Weather History Graph

Daily Weather History Graph

Search for Another Location

Airport or City:

Trip Planner

Search our weather history database for the weather conditions in past years. The results will help you decide how hot, cold, wet, or windy it might be!

Date:

Astronomy

Jun. 23, 2014 Rise Set
Actual Time 5:14 AM PDT 9:09 PM PDT
Civil Twilight 4:34 AM PDT 9:49 PM PDT
Nautical Twilight 3:39 AM PDT 10:44 PM PDT
Astronomical Twilight 2:15 AM PDT 12:08 AM PDT
Moon 2:55 AM PDT (6/23) 5:46 PM PDT (6/23)
Length of Visible Light 17h 15m
Length of Day
15h 54m
Waning Crescent, 12% of the Moon is Illuminated
Jun 23
Waning Crescent
Jun 27
New
Jul 5
First Quarter
Jul 12
Full
Jul 18
Last Quarter

Hourly Weather History & Observations

Time (PDT) Temp. Dew Point Humidity Pressure Visibility Wind Dir Wind Speed Gust Speed Precip Events Conditions
12:58 AM 57.2 °F 47.8 °F 71% 30.01 in 10.0 mi South 2.3 mph - N/A   Overcast
1:58 AM 52.3 °F 47.5 °F 84% 30.01 in 10.0 mi South 4.6 mph - N/A   Mostly Cloudy
2:58 AM 49.8 °F 46.4 °F 88% 30.01 in 10.0 mi South 3.5 mph - N/A   Clear
3:58 AM 48.9 °F 47.3 °F 94% 30.01 in 10.0 mi Calm Calm - N/A   Clear
4:58 AM 47.1 °F 46.2 °F 97% 30.02 in 10.0 mi Calm Calm - N/A   Clear
5:58 AM 49.8 °F 48.4 °F 95% 30.02 in 10.0 mi South 5.8 mph - N/A   Overcast
6:58 AM 54.3 °F 49.3 °F 83% 30.04 in 10.0 mi South 3.5 mph - N/A   Overcast
7:58 AM 60.4 °F 50.5 °F 70% 30.03 in 10.0 mi SE 2.3 mph - N/A   Clear
8:58 AM 64.4 °F 51.1 °F 62% 30.04 in 10.0 mi Variable 2.3 mph - N/A   Partly Cloudy
9:58 AM 66.7 °F 50.5 °F 56% 30.03 in 10.0 mi Variable 3.5 mph - N/A   Overcast
10:58 AM 71.4 °F 50.9 °F 48% 30.04 in 10.0 mi Variable 4.6 mph - N/A   Scattered Clouds
11:58 AM 74.7 °F 49.8 °F 42% 30.03 in 10.0 mi WNW 9.2 mph - N/A   Overcast
12:58 PM 77.2 °F 51.6 °F 41% 30.02 in 10.0 mi NW 8.1 mph - N/A   Mostly Cloudy
1:58 PM 76.8 °F 53.1 °F 44% 30.02 in 10.0 mi NW 9.2 mph - N/A   Scattered Clouds
2:58 PM 73.8 °F 52.9 °F 48% 30.03 in 10.0 mi West 12.7 mph - N/A   Overcast
3:58 PM 71.6 °F 51.8 °F 50% 30.04 in 10.0 mi WNW 9.2 mph - N/A   Mostly Cloudy
4:58 PM 70.7 °F 50.4 °F 48% 30.04 in 10.0 mi WNW 8.1 mph - N/A   Mostly Cloudy
5:58 PM 69.4 °F 46.4 °F 44% 30.05 in 10.0 mi West 10.4 mph - N/A   Scattered Clouds
6:58 PM 67.1 °F 49.5 °F 53% 30.07 in 10.0 mi WNW 8.1 mph - N/A   Mostly Cloudy
7:58 PM 65.7 °F 50.7 °F 58% 30.08 in 10.0 mi West 5.8 mph - N/A   Mostly Cloudy
8:46 PM 66.2 °F 50.0 °F 56% 30.07 in 10.0 mi South 4.6 mph - N/A Rain Light Rain
8:58 PM 64.6 °F 50.9 °F 61% 30.09 in 10.0 mi SW 5.8 mph - 0.00 in Rain Light Rain
9:58 PM 60.3 °F 54.0 °F 80% 30.10 in 10.0 mi WSW 4.6 mph - 0.00 in Rain Light Rain
10:58 PM 59.4 °F 57.2 °F 93% 30.11 in 10.0 mi WSW 1.2 mph - 0.01 in Rain Light Rain
11:04 PM 59.0 °F 57.2 °F 94% 30.10 in 10.0 mi Variable 2.3 mph - N/A   Mostly Cloudy
11:58 PM 58.6 °F 57.7 °F 97% 30.10 in 10.0 mi SSW 2.3 mph - 0.00 in   Clear